Location: Appeville
(49.3218°N, 1.3427°W)
Time: 04:59:39
(UTC+00:00)

STARLINK 1049 - Pass Details

Date: 08 December 2019
Orbit: 348 x 351 km, 53.0° (Epoch: 18 January)

Event Time Altitude Azimuth Distance (km) Brightness Sun altitude
Exits shadow 05:23:25 42° 110° (ESE) 544 4.0 -22.4°
Drops below altitude 10° 05:25:34 10° 113° (ESE) 1,369 6.7 -22.0°
Sets 05:27:43 0° 114° (ESE) 2,261 8.2 -21.7°
